sat.trackr.live / text

‹ back to catalog

STARLINK-35733

NORAD 66224 · 2025-244U

PAYLOAD ACTIVE UNKNOWN

§ Identity

Operator
Country
US
Launch date
2025-10-28
Launch site
AFWTR
Launch vehicle
Mass (kg)
RCS (m²)

Purposes: comms

External: N2YO · Heavens-Above · Gunter

§ Orbital elements

Epoch: 2026-05-24T23:14:26.174400Z

Period
94.10 min
Inclination
53.1604°
Eccentricity
0.0001348
Mean motion
15.30223932 rev/d
Perigee alt
474.2 km
Apogee alt
476.1 km
Semi-major
6,853.3 km
B*
9.2379e-4
RAAN
235.9167°
Arg perigee
84.5759°
Mean anomaly
275.5395°
Rev number
3,333

§ Raw data

STARLINK-357331 66224U 25244U   26144.96835850  .00027121  00000+0  92379-3 0  99932 66224  53.1604 235.9167 0001348  84.5759 275.5395 15.30223932 33336

JSON: /api/v1/satellites/66224 · /tle

For live sub-satellite position, see the globe view (requires WebGL).

§ Visibility from observer

Set your observer location to see the next 7 days of passes ≥ 10°. The values pass through the URL so the page stays shareable.

No JS? Fill the form by hand. The geolocation button needs JavaScript.